Wind_Speed
10 8 7 6 4 2 0 2 4 5 6 7 7 6 7 8 8 9 8 7 8 7 7 7 7 8 8 8 8 8 8 8 7 7 7 7 8 8 8 7 8 8 9 9
11 9 8 7 5 3 2 3 4 4 5 6 6 5 5 6 8 9 9 8 8 7 7 7 7 8 8 8 9 9 8 8 8 8 8 7 8 8 8 8 8 9 9 10
13 11 10 8 7 5 4 5 5 5 5 6 6 5 5 6 6 8 9 9 8 7 7 7 7 8 8 8 9 9 8 8 9 8 8 8 8 9 9 9 10 10 10 10
16 13 12 10 8 6 5 6 6 6 6 7 8 7 7 7 7 8 8 8 8 8 8 8 8 8 8 8 8 9 9 9 9 9 9 10 10 9 10 10 11 11 11 11
17 15 13 12 9 8 7 7 7 7 7 8 8 9 8 8 8 8 7 8 8 9 9 9 9 9 8 9 9 9 9 10 10 10 10 11 11 11 12 11 12 12 12 12
17 16 14 12 11 10 9 9 9 8 8 9 10 10 8 7 8 8 8 8 8 9 9 9 9 9 9 9 10 10 10 10 10 10 11 12 12 12 13 12 13 13 13 12
18 16 14 13 13 12 11 11 11 11 10 11 11 10 7 7 8 8 9 9 9 9 9 10 9 9 9 9 10 10 10 10 10 11 12 13 13 12 12 13 13 13 12 13
18 17 14 13 13 13 12 12 12 13 13 12 11 10 8 8 9 9 9 10 10 10 10 10 9 10 9 10 10 10 10 10 11 12 12 13 14 14 14 14 13 13 13 14
18 17 15 14 13 14 13 13 13 14 14 14 12 11 9 10 11 11 11 11 10 10 10 10 10 10 10 10 10 10 11 11 11 12 13 14 14 14 14 14 14 14 14 14
20 19 18 16 16 16 15 15 16 16 16 15 13 11 11 12 13 13 12 11 10 10 11 11 10 10 10 10 10 10 11 11 12 13 13 13 14 14 14 15 14 14 15 15
20 20 19 19 19 18 18 17 18 17 17 16 16 14 13 14 14 14 13 12 12 12 11 11 11 11 10 10 10 11 11 12 13 13 13 14 14 15 15 15 15 15 16 16
22 21 21 21 20 20 20 19 19 18 17 17 17 15 15 15 15 14 14 13 13 12 12 11 11 10 10 10 11 12 12 13 13 14 14 14 15 15 16 16 16 16 17 17
24 24 23 22 22 21 21 20 20 19 19 18 18 17 15 15 15 14 14 14 13 13 12 12 11 11 11 11 12 12 13 14 14 14 14 15 15 16 16 16 16 17 17 18
25 25 25 24 22 22 22 21 21 20 20 19 19 18 16 15 15 15 14 14 15 15 14 13 13 13 13 13 13 13 14 14 14 15 15 15 16 16 16 16 16 17 18 18
27 27 26 25 25 23 24 23 22 21 20 20 20 19 18 16 15 15 15 16 16 15 14 14 14 14 14 13 13 14 15 15 15 15 16 16 17 16 16 16 17 18 18 19
28 28 27 27 26 26 25 25 24 23 22 22 21 20 19 18 17 17 16 17 16 15 14 14 14 15 15 14 14 15 16 16 15 16 16 17 17 17 17 18 18 18 19 19
29 29 29 29 28 27 27 25 25 24 24 24 23 22 21 19 19 18 18 17 17 16 15 15 16 17 17 16 15 16 17 17 17 17 17 18 18 17 18 19 19 19 19 19
29 29 30 30 30 30 27 26 26 26 26 25 24 23 22 21 20 20 19 18 18 18 18 18 18 18 18 17 16 17 18 18 18 18 18 18 18 18 18 19 19 20 20 20
29 29 29 29 29 30 28 27 27 27 27 26 25 24 23 22 21 21 20 20 20 20 20 19 19 19 20 19 19 20 20 20 19 19 19 19 19 19 19 20 20 21 21 22
30 30 30 30 30 31 29 28 28 27 27 25 25 24 23 23 23 22 22 21 21 20 20 20 21 21 21 21 21 22 22 22 21 20 20 20 21 20 20 20 21 21 22 22
32 32 32 31 32 31 28 28 28 27 25 25 25 25 24 24 23 23 22 22 22 22 21 22 22 22 22 22 22 23 23 23 22 21 20 21 22 21 21 22 22 22 23 23
33 33 33 33 33 31 28 27 27 27 26 26 25 25 26 25 24 23 22 22 22 23 22 22 23 23 23 23 24 25 24 24 23 22 21 21 22 22 22 23 23 23 24 24
34 34 33 33 32 31 29 29 28 28 27 27 27 27 27 26 24 24 23 23 23 23 23 23 24 24 24 24 25 26 25 25 25 24 23 23 23 24 24 24 24 24 25 25
35 34 34 33 32 32 31 30 30 29 29 29 29 28 27 26 25 24 24 24 24 24 24 25 25 25 25 25 26 27 25 24 24 24 24 25 25 25 25 25 25 26 27 27
35 34 34 34 33 33 32 32 31 30 30 29 29 29 28 28 27 26 26 25 25 25 26 26 26 26 26 26 26 27 26 25 24 24 25 26 26 26 26 26 27 28 28 28
35 35 35 34 34 33 32 32 32 31 30 30 30 29 29 29 29 28 28 27 27 27 27 26 26 25 26 26 26 26 26 26 25 25 25 26 27 27 27 27 28 29 29 30
Wind_Direction
200 199 198 202 209 204 159 23 29 29 29 25 24 23 21 16 11 12 16 14 8 9 4 2 7 7 5 4 4 2 359 355 352 349 346 337 334 334 334 333 331 327 323 318
205 206 207 212 220 220 268 316 347 349 1 5 10 15 10 4 3 2 4 5 4 6 3 357 359 358 357 359 359 357 352 348 346 346 344 340 338 335 335 333 331 328 325 319
209 208 216 223 229 240 275 294 314 317 325 341 347 357 357 353 349 350 351 352 353 357 354 347 347 348 349 350 351 350 344 344 344 341 339 335 334 333 331 327 325 326 323 316
213 217 224 232 236 243 259 277 296 306 311 323 334 336 339 337 337 337 341 346 349 350 352 346 345 345 345 345 345 344 343 342 343 341 337 331 327 327 325 322 322 325 325 319
214 220 226 231 235 244 258 266 281 300 307 316 332 335 335 323 329 333 336 339 341 343 345 342 340 340 341 341 342 342 341 341 341 336 332 329 327 327 326 323 321 320 323 323
214 220 225 231 237 246 254 262 273 285 295 310 325 326 330 326 325 326 324 326 330 333 334 334 333 331 332 336 338 341 340 336 336 334 329 328 329 326 325 322 320 318 318 319
215 223 228 232 240 249 253 261 273 279 290 304 311 314 322 324 327 324 321 320 323 328 332 330 330 332 329 332 335 337 336 334 332 331 328 326 327 327 324 322 320 321 321 320
220 225 228 232 241 249 255 262 274 285 293 299 298 300 308 314 323 322 318 319 320 323 326 325 328 330 329 329 333 335 336 335 332 331 329 328 327 327 326 323 319 321 322 322
223 224 226 231 240 246 253 261 271 280 287 291 293 296 299 306 315 318 317 320 323 323 324 325 324 323 325 326 328 329 330 330 329 327 326 327 328 329 328 324 321 320 320 319
225 226 227 233 240 246 252 261 270 275 280 285 289 293 300 301 305 310 313 317 319 323 325 322 320 319 319 320 322 325 326 326 325 328 327 329 329 330 328 325 322 320 319 320
227 230 228 235 243 250 255 262 269 273 274 280 284 291 297 297 299 301 305 309 312 315 315 317 322 322 317 317 320 324 326 325 323 325 326 327 328 329 327 324 324 322 320 319
232 235 237 240 244 249 254 261 267 270 273 280 286 290 293 295 295 295 297 301 305 310 310 313 317 321 320 321 323 324 324 324 325 326 324 325 328 329 327 326 324 322 321 319
236 240 242 242 244 250 254 261 265 269 272 278 285 290 289 289 292 290 290 293 298 303 305 308 312 315 317 319 320 323 323 321 324 326 325 326 328 329 327 325 324 323 321 320
240 243 246 247 250 253 255 260 264 267 271 276 284 289 290 288 289 289 286 289 293 298 299 303 307 314 317 314 316 319 320 318 322 324 325 326 328 329 329 329 327 324 322 320
240 244 247 250 250 253 255 259 263 267 272 277 283 286 290 289 288 289 287 288 290 294 297 299 305 309 312 309 312 315 316 316 317 319 322 323 324 323 323 326 326 324 322 321
242 244 247 251 253 254 255 258 261 265 270 275 280 283 285 288 287 286 285 288 289 290 295 298 302 306 306 302 304 309 310 310 311 313 317 321 321 319 319 320 321 322 322 321
244 246 249 252 254 256 256 258 261 263 268 274 276 280 282 284 283 282 283 286 288 288 290 294 300 302 301 296 297 301 304 307 310 311 313 316 319 317 316 318 318 319 320 321
245 247 250 252 253 256 259 259 262 266 269 274 277 279 279 279 280 280 280 281 283 283 286 291 295 298 299 295 294 298 300 304 307 309 311 314 317 317 318 318 319 321 321 321
244 247 250 252 254 256 259 260 264 267 270 273 276 277 279 279 279 279 279 280 282 282 284 287 290 292 295 293 293 296 299 302 303 305 308 310 312 314 314 315 317 318 318 318
243 246 250 252 254 257 261 262 264 268 270 272 274 274 274 276 276 278 279 280 281 281 283 285 287 289 291 292 294 297 299 300 299 301 304 306 308 310 312 312 313 313 314 315
243 245 249 253 255 258 261 263 264 265 270 270 271 272 274 278 277 279 280 278 279 279 281 283 284 286 288 288 290 294 296 297 297 297 300 303 305 306 308 309 309 309 310 311
244 247 249 253 256 258 260 261 263 265 266 267 269 272 275 277 276 276 277 278 279 279 279 281 281 283 286 287 288 290 292 294 293 294 297 299 302 303 306 308 309 308 308 310
245 247 250 252 255 257 258 259 261 263 265 267 270 272 273 274 274 274 274 275 275 277 278 280 282 283 285 286 288 290 290 291 292 294 298 299 299 300 302 305 308 310 310 310
246 247 249 251 252 254 257 258 260 262 264 266 268 269 269 272 272 273 273 274 276 276 276 279 281 283 285 286 287 291 292 293 294 295 296 297 298 297 298 301 304 308 309 309
246 246 248 250 251 253 257 259 260 262 263 265 264 266 266 268 267 268 271 273 276 277 278 278 281 283 285 286 288 290 290 292 292 294 295 295 295 296 298 300 303 306 307 307
246 247 248 250 252 253 256 258 259 261 262 264 265 266 265 267 267 268 270 273 276 277 280 280 281 282 284 285 287 289 290 292 292 293 294 295 298 300 300 301 303 305 305 305
Height
5903 5905 5906 5906 5906 5907 5907 5907 5907 5907 5905 5905 5904 5903 5902 5901 5900 5899 5897 5896 5894 5893 5892 5890 5889 5887 5886 5884 5883 5881 5880 5878 5877 5875 5873 5872 5871 5869 5868 5866 5865 5864 5862 5861
5903 5904 5905 5905 5906 5906 5907 5907 5907 5907 5906 5905 5904 5903 5902 5901 5900 5899 5897 5896 5894 5893 5892 5890 5889 5887 5886 5884 5882 5881 5879 5878 5876 5875 5873 5872 5870 5869 5867 5865 5864 5862 5861 5859
5901 5904 5904 5905 5906 5906 5907 5907 5906 5906 5906 5905 5904 5904 5903 5901 5900 5899 5897 5895 5894 5893 5891 5890 5888 5887 5885 5884 5882 5880 5879 5877 5875 5874 5872 5871 5869 5867 5866 5864 5863 5861 5859 5858
5899 5901 5902 5904 5905 5905 5906 5906 5905 5905 5905 5904 5904 5903 5902 5900 5899 5898 5896 5895 5893 5892 5890 5889 5887 5886 5884 5883 5881 5880 5878 5876 5875 5873 5871 5870 5868 5866 5864 5863 5861 5859 5857 5855
5898 5900 5901 5902 5904 5904 5904 5905 5904 5904 5904 5904 5903 5902 5902 5899 5898 5897 5896 5894 5893 5891 5890 5888 5887 5885 5884 5882 5880 5879 5877 5875 5873 5871 5870 5868 5866 5865 5863 5861 5859 5857 5855 5853
5896 5897 5899 5901 5902 5902 5903 5903 5903 5903 5903 5903 5902 5901 5900 5898 5897 5896 5895 5893 5891 5890 5889 5887 5886 5884 5883 5881 5879 5877 5876 5874 5872 5870 5868 5867 5865 5863 5861 5859 5856 5854 5853 5851
5894 5895 5897 5899 5900 5900 5901 5902 5902 5901 5901 5901 5900 5899 5900 5898 5896 5895 5893 5892 5890 5889 5887 5886 5884 5883 5881 5880 5878 5876 5874 5873 5871 5869 5867 5865 5863 5860 5858 5857 5855 5852 5850 5849
5891 5894 5896 5897 5898 5898 5899 5900 5901 5900 5899 5899 5898 5897 5898 5897 5895 5893 5892 5890 5889 5887 5886 5884 5883 5881 5879 5878 5876 5875 5873 5871 5869 5867 5865 5863 5861 5858 5856 5854 5852 5850 5848 5846
5888 5891 5893 5894 5895 5896 5896 5897 5898 5898 5897 5897 5896 5896 5896 5895 5893 5892 5890 5889 5887 5886 5884 5883 5881 5879 5878 5876 5874 5873 5871 5869 5867 5865 5863 5861 5859 5856 5854 5852 5850 5848 5846 5843
5885 5888 5890 5891 5892 5893 5894 5894 5895 5894 5894 5894 5894 5894 5894 5893 5891 5890 5888 5887 5886 5884 5882 5881 5879 5877 5876 5874 5873 5871 5869 5867 5865 5863 5861 5859 5856 5854 5851 5849 5847 5845 5842 5840
5881 5884 5886 5888 5888 5890 5891 5891 5891 5891 5891 5891 5891 5893 5891 5890 5889 5887 5886 5885 5884 5882 5880 5878 5877 5875 5874 5872 5871 5869 5867 5865 5863 5861 5859 5857 5854 5852 5849 5846 5844 5842 5839 5837
5877 5879 5881 5884 5885 5886 5887 5887 5888 5888 5888 5888 5888 5891 5888 5887 5886 5885 5884 5883 5881 5880 5878 5876 5875 5873 5871 5870 5868 5867 5865 5863 5861 5858 5856 5854 5852 5849 5847 5844 5841 5839 5836 5834
5873 5875 5877 5879 5882 5882 5882 5883 5884 5884 5885 5884 5885 5888 5885 5884 5883 5882 5881 5880 5879 5877 5876 5874 5872 5871 5869 5867 5866 5864 5862 5860 5858 5855 5853 5851 5849 5846 5844 5841 5839 5836 5833 5830
5869 5870 5873 5875 5876 5877 5878 5879 5880 5880 5880 5880 5881 5881 5881 5880 5879 5879 5878 5877 5876 5874 5873 5871 5870 5868 5866 5864 5862 5861 5859 5857 5855 5853 5850 5848 5845 5843 5841 5838 5835 5833 5830 5827
5863 5865 5867 5869 5871 5872 5873 5874 5875 5876 5876 5877 5877 5877 5877 5876 5876 5875 5874 5873 5872 5871 5870 5868 5866 5864 5863 5861 5859 5858 5856 5854 5851 5849 5847 5844 5842 5839 5837 5835 5832 5829 5826 5823
5857 5859 5861 5863 5865 5866 5868 5869 5870 5871 5872 5872 5872 5873 5873 5872 5871 5871 5870 5869 5868 5867 5866 5864 5863 5861 5859 5858 5856 5854 5852 5850 5848 5846 5843 5841 5838 5836 5834 5831 5829 5826 5823 5820
5852 5854 5855 5857 5859 5860 5862 5864 5865 5866 5867 5867 5867 5869 5868 5867 5867 5866 5866 5865 5864 5863 5861 5860 5859 5857 5856 5854 5852 5850 5848 5846 5844 5842 5840 5837 5835 5832 5830 5827 5825 5822 5819 5816
5846 5847 5849 5851 5853 5854 5859 5859 5860 5861 5861 5862 5862 5862 5862 5862 5862 5861 5861 5860 5859 5858 5857 5856 5854 5853 5851 5849 5848 5846 5844 5842 5840 5838 5836 5833 5831 5828 5826 5823 5820 5818 5815 5812
5839 5841 5842 5844 5845 5847 5851 5852 5853 5854 5855 5856 5856 5856 5856 5856 5856 5856 5855 5855 5854 5853 5852 5851 5849 5848 5846 5845 5843 5841 5839 5837 5835 5833 5831 5828 5826 5824 5821 5819 5816 5813 5810 5807
5832 5834 5836 5837 5839 5841 5845 5846 5846 5849 5849 5850 5850 5850 5850 5850 5850 5851 5850 5849 5848 5847 5846 5845 5844 5842 5841 5840 5838 5836 5834 5832 5830 5828 5825 5823 5821 5819 5816 5814 5811 5808 5805 5802
5825 5827 5828 5830 5831 5834 5837 5838 5840 5842 5844 5843 5843 5844 5844 5844 5844 5844 5843 5842 5842 5841 5840 5839 5838 5836 5835 5834 5832 5831 5829 5826 5824 5822 5819 5817 5815 5813 5811 5808 5805 5803 5800 5797
5817 5819 5821 5823 5825 5829 5829 5831 5833 5834 5835 5836 5836 5837 5837 5837 5837 5837 5836 5836 5835 5834 5833 5832 5831 5830 5829 5827 5826 5824 5822 5820 5818 5816 5814 5812 5809 5807 5804 5802 5799 5796 5794 5791
5809 5812 5814 5816 5819 5820 5822 5824 5825 5826 5828 5828 5829 5829 5830 5829 5829 5830 5830 5829 5828 5827 5826 5825 5824 5823 5822 5821 5819 5817 5815 5813 5811 5809 5807 5805 5803 5801 5798 5796 5793 5790 5787 5784
5800 5803 5805 5808 5810 5812 5814 5816 5817 5819 5820 5820 5821 5822 5822 5822 5822 5822 5822 5822 5821 5820 5819 5818 5817 5816 5815 5813 5812 5810 5807 5806 5804 5803 5801 5799 5796 5794 5792 5789 5787 5784 5781 5777
5792 5794 5797 5799 5802 5804 5806 5808 5809 5811 5812 5812 5813 5814 5814 5814 5814 5814 5814 5813 5813 5812 5811 5810 5809 5808 5807 5806 5805 5803 5801 5799 5798 5796 5794 5792 5789 5787 5785 5783 5780 5777 5774 5771
5783 5786 5788 5791 5793 5796 5798 5799 5801 5802 5803 5804 5805 5805 5805 5806 5806 5805 5805 5805 5805 5804 5803 5802 5801 5800 5800 5799 5797 5795 5794 5792 5790 5789 5787 5785 5782 5780 5777 5775 5773 5770 5767 5764